Location: �terpigny
(49.8910°N, 2.9249°E)
Time: 20:20:59
(UTC+00:00)

Gurwin Techsat 1B - Pass Details

Date: 01 July 2022
Orbit: 812 x 813 km, 98.8° (Epoch: 16 August)

Event Time Altitude Azimuth Distance (km) Brightness Sun altitude
Rises 01:58:51 0° 19° (NNE) 3,348 13.7 -11.8°
Reaches altitude 10° 02:01:18 10° 26° (NNE) 2,412 12.6 -11.6°
Maximum altitude 02:06:25 46° 99° (E) 1,087 9.5 -11.2°
Drops below altitude 10° 02:11:30 10° 172° (S) 2,395 10.6 -10.7°
Enters shadow 02:12:15 - 175° (S) 2,679 10.8 -10.7°
